1579388438,2020-01-19 00:00,22.69,999.69,1025.47,214,26.08,3.16,-26,1
1579388498,2020-01-19 00:01,22.68,999.71,1025.49,214,26.07,3.15,-27,1
1579388559,2020-01-19 00:02,22.70,999.71,1025.49,214,26.07,3.16,-26,1
1579388619,2020-01-19 00:03,22.68,999.70,1025.49,214,26.07,3.15,-26,1
1579388679,2020-01-19 00:04,22.69,999.69,1025.47,214,26.07,3.15,-27,1
1579388740,2020-01-19 00:05,22.69,999.67,1025.46,214,26.07,3.15,-25,1
1579388800,2020-01-19 00:06,22.68,999.63,1025.41,214,26.07,3.15,-27,1
1579388860,2020-01-19 00:07,22.70,999.63,1025.42,214,26.07,3.16,-23,1
1579388920,2020-01-19 00:08,22.67,999.66,1025.44,214,26.07,3.14,-24,1
1579388981,2020-01-19 00:09,22.66,999.66,1025.45,214,26.07,3.13,-24,1
1579389101,2020-01-19 00:11,22.63,999.68,1025.46,214,26.06,3.11,-27,1
1579389162,2020-01-19 00:12,22.67,999.68,1025.46,214,26.07,3.14,-27,1
1579389222,2020-01-19 00:13,22.68,999.68,1025.46,214,26.07,3.15,-27,1
1579389282,2020-01-19 00:14,22.63,999.67,1025.45,214,26.07,3.12,-26,1
1579389342,2020-01-19 00:15,22.60,999.69,1025.47,214,26.07,3.10,-26,1
1579389403,2020-01-19 00:16,22.61,999.66,1025.44,214,26.06,3.10,-26,1
1579389463,2020-01-19 00:17,22.70,999.66,1025.44,214,26.07,3.16,-26,1
1579389523,2020-01-19 00:18,22.63,999.68,1025.46,214,26.06,3.11,-23,1
1579389583,2020-01-19 00:19,22.63,999.71,1025.50,214,26.07,3.12,-25,1
1579389644,2020-01-19 00:20,22.63,999.70,1025.48,214,26.06,3.11,-26,1
1579389704,2020-01-19 00:21,22.62,999.72,1025.50,214,26.05,3.09,-26,1
1579389764,2020-01-19 00:22,22.62,999.75,1025.53,214,26.07,3.11,-23,1
1579389825,2020-01-19 00:23,22.62,999.73,1025.51,214,26.05,3.09,-27,1
1579389885,2020-01-19 00:24,22.60,999.75,1025.53,214,26.06,3.09,-27,1
1579389945,2020-01-19 00:25,22.50,999.75,1025.53,214,26.06,3.03,-27,1
1579390005,2020-01-19 00:26,22.62,999.76,1025.55,214,26.06,3.10,-26,1
1579390066,2020-01-19 00:27,22.81,999.78,1025.56,214,26.05,3.21,-25,1
1579390126,2020-01-19 00:28,22.87,999.79,1025.57,214,26.06,3.26,-23,1
1579390186,2020-01-19 00:29,22.45,999.78,1025.57,214,26.05,2.98,-26,1
1579390246,2020-01-19 00:30,22.70,999.80,1025.58,214,26.06,3.15,-26,1
1579390306,2020-01-19 00:31,22.61,999.81,1025.60,214,26.05,3.09,-24,1
1579390366,2020-01-19 00:32,22.61,999.81,1025.59,214,26.05,3.09,-25,1
1579390426,2020-01-19 00:33,22.63,999.79,1025.58,214,26.06,3.11,-27,1
1579390486,2020-01-19 00:34,22.61,999.75,1025.54,214,26.06,3.10,-27,1
1579390546,2020-01-19 00:35,22.59,999.76,1025.54,214,26.04,3.07,-25,1
1579390606,2020-01-19 00:36,22.57,999.75,1025.54,214,26.06,3.07,-26,1
1579390667,2020-01-19 00:37,22.58,999.71,1025.50,214,26.04,3.06,-26,1
1579390727,2020-01-19 00:38,22.59,999.71,1025.49,214,26.05,3.07,-24,1
1579390787,2020-01-19 00:39,22.59,999.74,1025.53,214,26.05,3.07,-25,1
1579390847,2020-01-19 00:40,22.59,999.73,1025.51,214,26.05,3.07,-25,1
1579390907,2020-01-19 00:41,22.60,999.73,1025.51,214,26.06,3.09,-26,1
1579390967,2020-01-19 00:42,22.48,999.71,1025.49,214,26.04,3.00,-26,1
1579391027,2020-01-19 00:43,22.57,999.70,1025.49,214,26.05,3.06,-25,1
1579391087,2020-01-19 00:44,22.58,999.73,1025.52,214,26.05,3.07,-25,1
1579391147,2020-01-19 00:45,22.57,999.70,1025.49,214,26.05,3.06,-27,1
1579391207,2020-01-19 00:46,22.59,999.69,1025.48,214,26.05,3.07,-25,1
1579391267,2020-01-19 00:47,22.57,999.73,1025.51,214,26.05,3.06,-26,1
1579391327,2020-01-19 00:48,22.57,999.74,1025.52,214,26.05,3.06,-25,1
1579391388,2020-01-19 00:49,22.55,999.74,1025.52,214,26.05,3.05,-26,1
1579391448,2020-01-19 00:50,22.54,999.79,1025.58,214,26.04,3.04,-26,1
1579391508,2020-01-19 00:51,22.57,999.80,1025.58,214,26.05,3.06,-26,1
1579391568,2020-01-19 00:52,22.57,999.82,1025.60,214,26.05,3.06,-27,1
1579391628,2020-01-19 00:53,22.58,999.83,1025.62,214,26.06,3.07,-26,1
1579391688,2020-01-19 00:54,22.59,999.85,1025.63,214,26.06,3.08,-24,1
1579391748,2020-01-19 00:55,22.58,999.87,1025.65,214,26.05,3.07,-26,1
1579391808,2020-01-19 00:56,22.54,999.88,1025.66,214,26.05,3.05,-27,1
1579391868,2020-01-19 00:57,22.58,999.88,1025.66,214,26.05,3.07,-26,1
1579391928,2020-01-19 00:58,22.57,999.89,1025.67,214,26.05,3.06,-25,1
1579391988,2020-01-19 00:59,22.54,999.87,1025.66,214,26.05,3.05,-26,1
1579392048,2020-01-19 01:00,22.56,999.90,1025.69,214,26.06,3.06,-26,1
1579392109,2020-01-19 01:01,22.53,999.90,1025.68,214,26.05,3.04,-25,1
1579392169,2020-01-19 01:02,22.57,999.92,1025.70,214,26.05,3.06,-26,1
1579392229,2020-01-19 01:03,22.54,999.94,1025.72,214,26.05,3.05,-26,1
1579392289,2020-01-19 01:04,22.60,999.97,1025.75,214,26.06,3.09,-26,1
1579392349,2020-01-19 01:05,22.51,999.99,1025.77,214,26.06,3.03,-26,1
1579392409,2020-01-19 01:06,22.53,1000.00,1025.78,214,26.06,3.05,-24,1
1579392469,2020-01-19 01:07,22.53,999.98,1025.77,214,26.05,3.04,-27,1
1579392529,2020-01-19 01:08,22.51,1000.02,1025.80,214,26.05,3.03,-26,1
1579392589,2020-01-19 01:09,22.51,1000.03,1025.81,214,26.05,3.03,-23,1
1579392649,2020-01-19 01:10,22.51,1000.04,1025.82,214,26.06,3.03,-27,1
1579392709,2020-01-19 01:11,22.53,999.99,1025.78,214,26.06,3.05,-26,1
1579392769,2020-01-19 01:12,22.53,999.98,1025.76,214,26.05,3.04,-27,1
1579392830,2020-01-19 01:13,22.51,999.97,1025.75,214,26.05,3.03,-26,1
1579392890,2020-01-19 01:14,22.49,999.97,1025.75,214,26.05,3.01,-26,1
1579392950,2020-01-19 01:15,22.52,999.95,1025.74,214,26.05,3.03,-26,1
1579393010,2020-01-19 01:16,22.53,999.97,1025.75,214,26.06,3.05,-25,1
1579393070,2020-01-19 01:17,22.51,999.93,1025.71,214,26.05,3.03,-26,1
1579393130,2020-01-19 01:18,22.53,999.96,1025.74,214,26.06,3.05,-25,1
1579393250,2020-01-19 01:20,22.52,999.98,1025.76,214,26.05,3.03,-26,1
1579393310,2020-01-19 01:21,22.47,999.97,1025.75,214,26.05,3.00,-23,1
1579393370,2020-01-19 01:22,22.49,999.97,1025.75,214,26.05,3.01,-26,1
1579393430,2020-01-19 01:23,22.49,999.98,1025.76,214,26.06,3.02,-25,1
1579393491,2020-01-19 01:24,22.48,999.96,1025.74,214,26.05,3.00,-22,1
1579393553,2020-01-19 01:25,22.47,999.94,1025.72,214,26.05,3.00,-27,1
1579393614,2020-01-19 01:26,22.54,999.97,1025.75,214,26.05,3.05,-25,1
1579393674,2020-01-19 01:27,22.48,999.98,1025.76,214,26.05,3.00,-26,1
1579393734,2020-01-19 01:28,22.46,999.98,1025.77,214,26.04,2.98,-26,1
1579393795,2020-01-19 01:29,22.48,1000.03,1025.81,214,26.05,3.00,-24,1
1579393855,2020-01-19 01:30,22.48,1000.03,1025.81,214,26.05,3.00,-26,1
1579393915,2020-01-19 01:31,22.53,1000.06,1025.84,214,26.05,3.04,-27,1
1579393975,2020-01-19 01:32,22.50,1000.07,1025.86,214,26.05,3.02,-25,1
1579394036,2020-01-19 01:33,22.52,1000.12,1025.90,214,26.06,3.04,-27,1
1579394096,2020-01-19 01:34,22.50,1000.12,1025.90,214,26.06,3.03,-26,1
1579394156,2020-01-19 01:35,22.53,1000.10,1025.88,214,26.05,3.04,-26,1
1579394216,2020-01-19 01:36,22.48,1000.12,1025.90,214,26.05,3.00,-27,1
1579394277,2020-01-19 01:37,22.45,1000.08,1025.86,214,26.05,2.98,-26,1
1579394337,2020-01-19 01:38,22.48,1000.13,1025.91,214,26.05,3.00,-26,1
1579394397,2020-01-19 01:39,22.47,1000.14,1025.92,214,26.06,3.01,-27,1
1579394458,2020-01-19 01:40,22.39,1000.14,1025.92,214,26.05,2.95,-27,1
1579394518,2020-01-19 01:41,22.43,1000.13,1025.91,214,26.04,2.97,-26,1
1579394578,2020-01-19 01:42,22.46,1000.09,1025.88,214,26.04,2.98,-27,1
1579394638,2020-01-19 01:43,22.45,1000.10,1025.88,214,26.05,2.98,-25,1
1579394698,2020-01-19 01:44,22.45,1000.11,1025.90,214,26.05,2.98,-26,1
1579394759,2020-01-19 01:45,22.47,1000.15,1025.93,214,26.06,3.01,-26,1
1579394819,2020-01-19 01:46,22.43,1000.15,1025.94,214,26.05,2.98,-25,1
1579394879,2020-01-19 01:47,22.42,1000.15,1025.93,214,26.05,2.97,-27,1
1579394940,2020-01-19 01:49,22.42,1000.22,1026.00,214,26.05,2.97,-27,1
1579395000,2020-01-19 01:50,22.42,1000.20,1025.98,214,26.05,2.97,-23,1
1579395060,2020-01-19 01:51,22.43,1000.25,1026.03,214,26.06,2.99,-27,1
1579395120,2020-01-19 01:52,22.43,1000.28,1026.06,214,26.06,2.99,-27,1
1579395181,2020-01-19 01:53,22.35,1000.27,1026.05,214,26.05,2.92,-26,1
1579395241,2020-01-19 01:54,22.43,1000.22,1026.01,214,26.05,2.98,-26,1
1579395301,2020-01-19 01:55,22.40,1000.20,1025.99,214,26.05,2.96,-23,1
1579395362,2020-01-19 01:56,22.39,1000.22,1026.00,214,26.04,2.94,-26,1
1579395422,2020-01-19 01:57,22.42,1000.20,1025.98,214,26.06,2.98,-26,1
1579395482,2020-01-19 01:58,22.42,1000.25,1026.04,214,26.06,2.98,-26,1
1579395542,2020-01-19 01:59,22.41,1000.28,1026.06,214,26.06,2.97,-28,1
1579395603,2020-01-19 02:00,22.36,1000.28,1026.07,214,26.05,2.93,-26,1
1579395663,2020-01-19 02:01,22.42,1000.31,1026.10,214,26.05,2.97,-26,1
1579395723,2020-01-19 02:02,22.39,1000.29,1026.07,214,26.06,2.96,-25,1
1579395784,2020-01-19 02:03,22.38,1000.26,1026.05,214,26.05,2.94,-26,1
1579395844,2020-01-19 02:04,22.40,1000.28,1026.06,214,26.06,2.97,-27,1
1579395904,2020-01-19 02:05,22.40,1000.26,1026.04,214,26.06,2.96,-24,1
1579395964,2020-01-19 02:06,22.38,1000.23,1026.01,214,26.06,2.95,-26,1
1579396025,2020-01-19 02:07,22.39,1000.26,1026.04,214,26.06,2.96,-26,1
1579396085,2020-01-19 02:08,22.41,1000.26,1026.04,214,26.05,2.96,-27,1
1579396145,2020-01-19 02:09,22.39,1000.29,1026.07,214,26.06,2.96,-27,1
1579396206,2020-01-19 02:10,22.53,1000.29,1026.08,214,26.06,3.05,-26,1
1579396266,2020-01-19 02:11,22.36,1000.30,1026.08,214,26.06,2.94,-26,1
1579396326,2020-01-19 02:12,22.38,1000.31,1026.09,214,26.05,2.94,-26,1
1579396386,2020-01-19 02:13,22.40,1000.33,1026.11,214,26.06,2.97,-26,1
1579396447,2020-01-19 02:14,22.40,1000.30,1026.08,214,26.06,2.97,-26,1
1579396507,2020-01-19 02:15,22.79,1000.31,1026.09,214,26.07,3.21,-22,1
1579396567,2020-01-19 02:16,22.40,1000.30,1026.08,214,26.07,2.97,-26,1
1579396627,2020-01-19 02:17,22.37,1000.28,1026.06,214,26.06,2.94,-25,1
1579396688,2020-01-19 02:18,22.30,1000.32,1026.10,214,26.07,2.91,-27,1
1579396748,2020-01-19 02:19,22.29,1000.31,1026.09,214,26.07,2.90,-27,1
1579396808,2020-01-19 02:20,22.34,1000.30,1026.08,214,26.06,2.92,-26,1
1579396869,2020-01-19 02:21,22.35,1000.31,1026.09,214,26.06,2.93,-26,1
1579396929,2020-01-19 02:22,22.35,1000.27,1026.05,214,26.06,2.93,-27,1
1579396989,2020-01-19 02:23,22.38,1000.26,1026.04,214,26.05,2.94,-25,1
1579397049,2020-01-19 02:24,22.38,1000.23,1026.01,214,26.06,2.95,-26,1
1579397110,2020-01-19 02:25,22.36,1000.24,1026.02,214,26.06,2.94,-26,1
1579397170,2020-01-19 02:26,22.39,1000.24,1026.02,214,26.05,2.95,-26,1
1579397230,2020-01-19 02:27,22.33,1000.28,1026.06,214,26.06,2.92,-26,1
1579397291,2020-01-19 02:28,22.36,1000.25,1026.04,214,26.06,2.94,-25,1
1579397351,2020-01-19 02:29,22.35,1000.28,1026.07,214,26.05,2.92,-24,1
1579397411,2020-01-19 02:30,22.40,1000.30,1026.08,214,26.06,2.96,-27,1
1579397471,2020-01-19 02:31,22.34,1000.30,1026.09,214,26.05,2.91,-25,1
1579397532,2020-01-19 02:32,22.34,1000.33,1026.11,214,26.05,2.91,-26,1
1579397592,2020-01-19 02:33,22.33,1000.30,1026.08,214,26.05,2.91,-27,1
1579397652,2020-01-19 02:34,22.33,1000.30,1026.09,214,26.05,2.91,-26,1
1579397713,2020-01-19 02:35,22.30,1000.30,1026.08,214,26.06,2.90,-27,1
1579397773,2020-01-19 02:36,22.35,1000.32,1026.10,214,26.06,2.93,-25,1
1579397833,2020-01-19 02:37,22.35,1000.31,1026.09,214,26.05,2.92,-24,1
1579397893,2020-01-19 02:38,22.35,1000.28,1026.06,214,26.06,2.93,-26,1
1579397954,2020-01-19 02:39,22.32,1000.27,1026.06,214,26.05,2.91,-26,1
1579398014,2020-01-19 02:40,22.35,1000.27,1026.06,214,26.05,2.92,-26,1
1579398074,2020-01-19 02:41,22.32,1000.25,1026.04,214,26.05,2.91,-26,1
1579398134,2020-01-19 02:42,22.35,1000.23,1026.01,214,26.06,2.93,-27,1
1579398195,2020-01-19 02:43,22.41,1000.25,1026.04,214,26.05,2.96,-27,1
1579398255,2020-01-19 02:44,22.39,1000.25,1026.03,214,26.05,2.95,-26,1
1579398315,2020-01-19 02:45,22.32,1000.24,1026.02,214,26.05,2.91,-27,1
1579398376,2020-01-19 02:46,22.32,1000.20,1025.98,214,26.05,2.91,-27,1
1579398436,2020-01-19 02:47,22.36,1000.22,1026.00,214,26.06,2.94,-26,1
1579398496,2020-01-19 02:48,22.50,1000.22,1026.00,214,26.05,3.02,-27,1
1579398556,2020-01-19 02:49,22.32,1000.21,1025.99,214,26.05,2.91,-27,1
1579398617,2020-01-19 02:50,22.31,1000.22,1026.00,214,26.06,2.91,-27,1
1579398677,2020-01-19 02:51,22.33,1000.26,1026.04,214,26.06,2.92,-26,1
1579398737,2020-01-19 02:52,22.33,1000.23,1026.02,214,26.04,2.91,-26,1
1579398798,2020-01-19 02:53,22.32,1000.22,1026.00,214,26.05,2.91,-27,1
1579398858,2020-01-19 02:54,22.51,1000.25,1026.03,214,26.06,3.03,-26,1
1579398918,2020-01-19 02:55,22.31,1000.24,1026.03,214,26.05,2.90,-26,1
1579398978,2020-01-19 02:56,22.28,1000.26,1026.04,214,26.06,2.89,-26,1
1579399039,2020-01-19 02:57,22.29,1000.23,1026.01,214,26.04,2.88,-27,1
1579399099,2020-01-19 02:58,22.31,1000.19,1025.98,214,26.05,2.90,-26,1
1579399159,2020-01-19 02:59,22.30,1000.19,1025.97,214,26.04,2.89,-26,1
1579399220,2020-01-19 03:00,22.32,1000.21,1025.99,214,26.04,2.90,-24,1
1579399280,2020-01-19 03:01,22.31,1000.21,1026.00,214,26.04,2.89,-25,1
1579399340,2020-01-19 03:02,22.30,1000.24,1026.02,214,26.05,2.89,-27,1
1579399400,2020-01-19 03:03,22.29,1000.25,1026.04,214,26.05,2.89,-27,1
1579399461,2020-01-19 03:04,22.29,1000.24,1026.03,214,26.04,2.88,-25,1
1579399521,2020-01-19 03:05,22.27,1000.25,1026.03,214,26.03,2.86,-27,1
1579399581,2020-01-19 03:06,22.29,1000.25,1026.03,214,26.05,2.89,-26,1
1579399641,2020-01-19 03:07,22.32,1000.20,1025.98,214,26.04,2.90,-26,1
1579399702,2020-01-19 03:08,22.31,1000.19,1025.97,214,26.03,2.88,-26,1
1579399762,2020-01-19 03:09,22.31,1000.19,1025.97,214,26.04,2.89,-26,1
1579399822,2020-01-19 03:10,22.27,1000.20,1025.98,214,26.04,2.86,-27,1
1579399883,2020-01-19 03:11,22.28,1000.20,1025.98,214,26.04,2.87,-28,1
1579399943,2020-01-19 03:12,22.32,1000.20,1025.98,214,26.04,2.90,-27,1
1579400003,2020-01-19 03:13,22.31,1000.16,1025.95,214,26.04,2.89,-25,1
1579400063,2020-01-19 03:14,22.28,1000.20,1025.98,214,26.04,2.87,-26,1
1579400124,2020-01-19 03:15,22.30,1000.21,1025.99,214,26.04,2.89,-26,1
1579400184,2020-01-19 03:16,22.28,1000.21,1025.99,214,26.04,2.87,-26,1
1579400244,2020-01-19 03:17,22.29,1000.22,1026.00,214,26.04,2.88,-25,1
1579400305,2020-01-19 03:18,22.27,1000.22,1026.00,214,26.03,2.86,-24,1
1579400365,2020-01-19 03:19,22.28,1000.24,1026.02,214,26.03,2.86,-27,1
1579400425,2020-01-19 03:20,22.28,1000.24,1026.03,214,26.03,2.86,-27,1
1579400485,2020-01-19 03:21,22.27,1000.20,1025.99,214,26.02,2.85,-25,1
1579400546,2020-01-19 03:22,22.27,1000.23,1026.02,214,26.03,2.86,-27,1
1579400606,2020-01-19 03:23,22.32,1000.22,1026.00,214,26.03,2.89,-25,1
1579400666,2020-01-19 03:24,22.29,1000.21,1026.00,214,26.03,2.87,-24,1
1579400727,2020-01-19 03:25,22.31,1000.22,1026.00,214,26.02,2.87,-23,1
1579400787,2020-01-19 03:26,22.26,1000.20,1025.98,214,26.03,2.85,-27,1
1579400847,2020-01-19 03:27,22.28,1000.19,1025.97,214,26.03,2.86,-27,1
1579400907,2020-01-19 03:28,22.27,1000.20,1025.98,214,26.03,2.86,-26,1
1579400968,2020-01-19 03:29,22.48,1000.20,1025.98,214,26.02,2.98,-26,1
1579401028,2020-01-19 03:30,22.23,1000.17,1025.96,214,26.02,2.83,-27,1
1579401088,2020-01-19 03:31,22.24,1000.18,1025.96,214,26.02,2.83,-26,1
1579401149,2020-01-19 03:32,22.22,1000.17,1025.96,214,26.02,2.82,-26,1
1579401209,2020-01-19 03:33,22.26,1000.18,1025.97,214,26.02,2.84,-24,1
1579401269,2020-01-19 03:34,22.22,1000.18,1025.97,214,26.01,2.81,-26,1
1579401329,2020-01-19 03:35,22.20,1000.21,1026.00,214,26.02,2.81,-27,1
1579401390,2020-01-19 03:36,22.27,1000.18,1025.97,214,26.02,2.85,-27,1
1579401450,2020-01-19 03:37,22.45,1000.17,1025.95,214,26.02,2.96,-25,1
1579401510,2020-01-19 03:38,22.28,1000.17,1025.96,214,26.03,2.86,-28,1
1579401570,2020-01-19 03:39,22.29,1000.20,1025.98,214,26.03,2.87,-25,1
1579401631,2020-01-19 03:40,22.26,1000.16,1025.95,214,26.02,2.84,-24,1
1579401691,2020-01-19 03:41,22.26,1000.19,1025.98,214,26.02,2.84,-27,1
1579401751,2020-01-19 03:42,22.25,1000.21,1026.00,214,26.03,2.84,-26,1
1579401812,2020-01-19 03:43,22.26,1000.22,1026.00,214,26.03,2.85,-25,1
1579401872,2020-01-19 03:44,22.27,1000.20,1025.98,214,26.02,2.85,-28,1
1579401932,2020-01-19 03:45,22.25,1000.22,1026.00,214,26.03,2.84,-26,1
1579401992,2020-01-19 03:46,22.25,1000.20,1025.98,214,26.02,2.83,-26,1
1579402053,2020-01-19 03:47,22.25,1000.22,1026.01,214,26.02,2.83,-25,1
1579402113,2020-01-19 03:48,22.23,1000.23,1026.02,214,26.02,2.83,-26,1
1579402173,2020-01-19 03:49,22.27,1000.23,1026.02,214,26.03,2.86,-26,1
1579402234,2020-01-19 03:50,22.26,1000.24,1026.03,214,26.03,2.85,-26,1
1579402294,2020-01-19 03:51,22.26,1000.23,1026.01,214,26.03,2.85,-25,1
1579402354,2020-01-19 03:52,22.26,1000.26,1026.04,214,26.02,2.84,-24,1
1579402414,2020-01-19 03:53,22.25,1000.29,1026.07,214,26.03,2.84,-25,1
1579402475,2020-01-19 03:54,22.24,1000.28,1026.06,214,26.03,2.83,-27,1
1579402535,2020-01-19 03:55,22.32,1000.28,1026.07,214,26.01,2.87,-26,1
1579402595,2020-01-19 03:56,22.25,1000.30,1026.08,214,26.02,2.83,-25,1
1579402655,2020-01-19 03:57,22.22,1000.29,1026.08,214,26.02,2.82,-26,1
1579402716,2020-01-19 03:58,22.25,1000.31,1026.09,214,26.02,2.83,-27,1
1579402776,2020-01-19 03:59,22.22,1000.30,1026.09,214,26.03,2.83,-25,1
1579402836,2020-01-19 04:00,22.22,1000.38,1026.16,214,26.02,2.82,-26,1
1579402897,2020-01-19 04:01,22.24,1000.39,1026.17,214,26.02,2.83,-25,1
1579402957,2020-01-19 04:02,22.22,1000.40,1026.19,214,26.02,2.82,-25,1
1579403017,2020-01-19 04:03,22.20,1000.43,1026.21,214,26.02,2.81,-28,1
1579403077,2020-01-19 04:04,22.24,1000.42,1026.20,214,26.02,2.83,-26,1
1579403138,2020-01-19 04:05,22.25,1000.45,1026.23,214,26.03,2.84,-25,1
1579403198,2020-01-19 04:06,22.24,1000.46,1026.24,214,26.02,2.83,-27,1
1579403258,2020-01-19 04:07,22.24,1000.48,1026.26,214,26.03,2.83,-26,1
1579403319,2020-01-19 04:08,22.22,1000.47,1026.26,214,26.02,2.82,-27,1
1579403379,2020-01-19 04:09,22.21,1000.50,1026.29,214,26.02,2.81,-25,1
1579403439,2020-01-19 04:10,22.06,1000.47,1026.26,214,26.03,2.72,-26,1
1579403499,2020-01-19 04:11,22.21,1000.47,1026.26,214,26.02,2.81,-26,1
1579403560,2020-01-19 04:12,22.21,1000.49,1026.27,214,26.03,2.82,-27,1
1579403620,2020-01-19 04:13,22.22,1000.49,1026.28,214,26.02,2.82,-27,1
1579403680,2020-01-19 04:14,22.21,1000.51,1026.30,214,26.02,2.81,-27,1
1579403740,2020-01-19 04:15,22.21,1000.50,1026.28,214,26.01,2.80,-27,1
1579403801,2020-01-19 04:16,22.25,1000.48,1026.26,214,26.01,2.82,-24,1
1579403861,2020-01-19 04:17,22.19,1000.54,1026.32,214,26.02,2.80,-27,1
1579403921,2020-01-19 04:18,22.21,1000.49,1026.28,214,26.00,2.79,-26,1
1579403982,2020-01-19 04:19,22.19,1000.51,1026.29,214,26.01,2.79,-28,1
1579404042,2020-01-19 04:20,22.18,1000.51,1026.29,214,26.02,2.79,-26,1
1579404102,2020-01-19 04:21,22.21,1000.51,1026.29,214,26.01,2.80,-26,1
1579404163,2020-01-19 04:22,22.33,1000.52,1026.30,214,26.01,2.88,-25,1
1579404223,2020-01-19 04:23,22.15,1000.55,1026.33,214,26.01,2.76,-26,1
1579404283,2020-01-19 04:24,22.21,1000.55,1026.34,214,26.02,2.81,-25,1
1579404343,2020-01-19 04:25,22.20,1000.56,1026.35,214,26.01,2.80,-27,1
1579404404,2020-01-19 04:26,22.36,1000.57,1026.36,214,26.01,2.89,-26,1
1579404464,2020-01-19 04:27,22.20,1000.58,1026.37,214,26.02,2.80,-27,1
1579404524,2020-01-19 04:28,22.20,1000.58,1026.37,214,26.02,2.80,-24,1
1579404585,2020-01-19 04:29,22.20,1000.59,1026.37,214,26.01,2.80,-27,1
1579404645,2020-01-19 04:30,22.20,1000.59,1026.37,214,26.01,2.80,-27,1
1579404705,2020-01-19 04:31,22.18,1000.61,1026.39,214,26.02,2.79,-24,1
1579404766,2020-01-19 04:32,22.17,1000.64,1026.42,214,26.02,2.78,-28,1
1579404826,2020-01-19 04:33,22.20,1000.63,1026.41,214,26.01,2.80,-27,1
1579404886,2020-01-19 04:34,22.17,1000.60,1026.39,214,26.01,2.78,-24,1
1579404946,2020-01-19 04:35,22.16,1000.61,1026.40,214,26.01,2.77,-24,1
1579405006,2020-01-19 04:36,22.19,1000.62,1026.40,214,26.01,2.79,-26,1
1579405066,2020-01-19 04:37,22.19,1000.61,1026.40,214,26.01,2.79,-26,1
1579405126,2020-01-19 04:38,22.19,1000.64,1026.42,214,26.00,2.78,-25,1
1579405186,2020-01-19 04:39,22.18,1000.63,1026.42,214,26.00,2.77,-25,1
1579405247,2020-01-19 04:40,22.19,1000.60,1026.38,214,26.00,2.78,-27,1
1579405307,2020-01-19 04:41,22.17,1000.62,1026.41,214,26.00,2.77,-24,1
1579405367,2020-01-19 04:42,22.19,1000.61,1026.40,214,26.01,2.79,-26,1
1579405427,2020-01-19 04:43,22.21,1000.62,1026.40,214,26.01,2.80,-26,1
1579405487,2020-01-19 04:44,22.19,1000.66,1026.44,214,26.00,2.78,-25,1
1579405547,2020-01-19 04:45,22.18,1000.65,1026.44,214,26.01,2.78,-20,1
1579405607,2020-01-19 04:46,21.96,1000.63,1026.42,214,26.00,2.63,-25,1
1579405667,2020-01-19 04:47,22.17,1000.70,1026.48,214,26.01,2.78,-27,1
1579405727,2020-01-19 04:48,22.05,1000.67,1026.46,214,26.01,2.70,-23,1
1579405787,2020-01-19 04:49,22.20,1000.65,1026.43,214,26.01,2.80,-25,1
1579405847,2020-01-19 04:50,22.17,1000.73,1026.51,214,26.01,2.78,-26,1
1579405907,2020-01-19 04:51,22.36,1000.73,1026.51,214,26.01,2.89,-26,1
1579405968,2020-01-19 04:52,22.29,1000.74,1026.52,214,26.01,2.85,-25,1
1579406028,2020-01-19 04:53,22.19,1000.74,1026.52,214,26.01,2.79,-26,1
1579406088,2020-01-19 04:54,22.19,1000.74,1026.53,214,26.00,2.78,-26,1
1579406148,2020-01-19 04:55,22.19,1000.74,1026.52,214,26.01,2.79,-27,1
1579406208,2020-01-19 04:56,22.17,1000.77,1026.55,214,26.00,2.77,-26,1
1579406268,2020-01-19 04:57,22.17,1000.73,1026.51,214,26.00,2.77,-26,1
1579406328,2020-01-19 04:58,22.18,1000.74,1026.53,214,26.00,2.77,-26,1
1579406388,2020-01-19 04:59,22.16,1000.74,1026.52,214,26.00,2.76,-25,1
1579406448,2020-01-19 05:00,22.17,1000.72,1026.50,214,26.00,2.77,-26,1
1579406508,2020-01-19 05:01,22.18,1000.72,1026.51,214,26.00,2.77,-26,1
1579406568,2020-01-19 05:02,22.18,1000.74,1026.52,214,26.00,2.77,-23,1
1579406628,2020-01-19 05:03,22.17,1000.78,1026.57,214,25.99,2.76,-27,1
1579406688,2020-01-19 05:04,22.16,1000.73,1026.51,214,26.00,2.76,-25,1
1579406749,2020-01-19 05:05,22.17,1000.74,1026.52,214,26.00,2.77,-25,1
1579406809,2020-01-19 05:06,22.07,1000.75,1026.53,214,26.00,2.70,-26,1
1579406869,2020-01-19 05:07,22.16,1000.77,1026.55,214,26.00,2.76,-24,1
1579406929,2020-01-19 05:08,22.18,1000.76,1026.54,214,25.99,2.77,-27,1
1579406989,2020-01-19 05:09,22.16,1000.77,1026.55,214,25.99,2.75,-26,1
1579407049,2020-01-19 05:10,22.17,1000.78,1026.56,214,26.00,2.77,-26,1
1579407109,2020-01-19 05:11,22.18,1000.80,1026.59,214,25.99,2.77,-27,1
1579407169,2020-01-19 05:12,22.17,1000.82,1026.60,214,26.00,2.77,-26,1
1579407229,2020-01-19 05:13,22.18,1000.84,1026.63,214,26.00,2.77,-26,1
1579407289,2020-01-19 05:14,22.16,1000.85,1026.63,214,26.00,2.76,-23,1
1579407349,2020-01-19 05:15,22.16,1000.84,1026.62,214,26.00,2.76,-26,1
1579407409,2020-01-19 05:16,22.13,1000.86,1026.64,214,26.00,2.75,-24,1
1579407469,2020-01-19 05:17,22.16,1000.87,1026.66,214,26.00,2.76,-26,1
1579407530,2020-01-19 05:18,22.16,1000.89,1026.68,214,26.00,2.76,-26,1
1579407590,2020-01-19 05:19,22.16,1000.88,1026.67,214,26.00,2.76,-26,1
1579407650,2020-01-19 05:20,22.12,1000.90,1026.69,214,26.00,2.74,-26,1
1579407710,2020-01-19 05:21,22.15,1000.92,1026.71,214,26.00,2.75,-25,1
1579407770,2020-01-19 05:22,22.13,1000.89,1026.68,214,25.98,2.73,-26,1
1579407830,2020-01-19 05:23,22.16,1000.92,1026.71,214,25.99,2.75,-22,1
1579407890,2020-01-19 05:24,22.15,1000.90,1026.69,214,26.00,2.75,-26,1
1579407950,2020-01-19 05:25,22.16,1000.88,1026.67,214,25.99,2.75,-27,1
1579408010,2020-01-19 05:26,22.13,1000.86,1026.65,214,26.00,2.75,-24,1
1579408070,2020-01-19 05:27,22.10,1000.88,1026.66,214,26.00,2.72,-26,1
1579408130,2020-01-19 05:28,22.17,1000.85,1026.64,214,26.01,2.78,-25,1
1579408190,2020-01-19 05:29,22.18,1000.89,1026.67,214,26.00,2.77,-26,1
1579408251,2020-01-19 05:30,22.17,1000.89,1026.67,214,26.00,2.77,-26,1
1579408311,2020-01-19 05:31,22.07,1000.92,1026.70,214,26.01,2.71,-26,1
1579408371,2020-01-19 05:32,22.16,1000.93,1026.72,214,26.01,2.77,-26,1
1579408431,2020-01-19 05:33,22.15,1000.96,1026.74,214,26.02,2.77,-26,1
1579408491,2020-01-19 05:34,22.15,1000.98,1026.76,214,26.02,2.77,-27,1
1579408551,2020-01-19 05:35,22.38,1000.98,1026.76,214,26.03,2.93,-25,1
1579408612,2020-01-19 05:36,22.15,1001.03,1026.81,214,26.03,2.78,-27,1
1579408673,2020-01-19 05:37,22.11,1001.02,1026.81,214,26.03,2.76,-26,1
1579408733,2020-01-19 05:38,22.13,1001.04,1026.82,214,26.03,2.76,-25,1
1579408793,2020-01-19 05:39,22.11,1001.05,1026.84,214,26.03,2.76,-27,1
1579408853,2020-01-19 05:40,22.14,1001.05,1026.83,214,26.04,2.78,-23,1
1579408914,2020-01-19 05:41,22.13,1001.04,1026.83,214,26.05,2.78,-25,1